Date String (YYYY-MM-DD hh:mm:ss) UTC,Instrument flags,absolute air pressure of the measurement (hPa),sample flow rate (lpm),inlet stack bypass flow (lpm),air temperature of the measurement (°C),ambient temperature measured by the external sensor (°C),aerosol sample conditioner tube jacket temperature (°C),OPC LED temperature (°C),internal box temperature (°C),relative humidity of the measurement (%),span deviation,mass concentration of particles derived from Lorenz-Mie calculation of OPC scattering (μg/m³),mass concentration of particles derived from Lorenz-Mie calculation of OPC scattering (μg/m³),mass concentration of particles derived from Lorenz-Mie calculation of OPC scattering (μg/m³)
DateTimeUTC,F1_M11,P_M11,Q1_M11,Q2_M11,T1_M11,T2_M11,T3_M11,T4_M11,T5_M11,U1_M11,ZSPAN_M11,X0_M11,X2_M11,X1_M11
2024-06-05 12:00:00,SystemResetWarning,0827.9,5.00,000.00,031.1,030.3,000.0,039.4,032.7,013.7,0000.0,0007.66,0002.47,0001.04
2024-06-05 12:01:00,SystemResetWarning,0827.9,5.00,000.00,031.1,030.3,000.0,039.4,032.7,013.6,0000.0,0007.78,0002.58,0001.08
2024-06-05 12:02:00,SystemResetWarning,0827.9,5.00,000.00,031.1,030.3,000.0,039.4,032.7,013.5,0000.0,0007.62,0002.49,0001.08
2024-06-05 12:03:00,SystemResetWarning,0827.9,5.00,000.00,031.1,030.3,000.0,039.4,032.7,013.8,0000.0,0007.38,0002.40,0001.06
2024-06-05 12:04:00,SystemResetWarning,0827.8,5.00,000.00,031.1,030.3,000.0,039.4,032.7,013.8,0000.0,0007.59,0002.41,0001.06
2024-06-05 12:05:00,SystemResetWarning,0827.8,5.00,000.00,031.1,030.3,000.0,039.4,032.7,013.2,0000.0,0007.87,0002.37,0001.07
2024-06-05 12:06:00,SystemResetWarning,0827.7,5.00,000.00,031.1,030.3,000.0,039.4,032.7,013.0,0000.0,0007.81,0002.34,0001.05
2024-06-05 12:07:00,SystemResetWarning,0827.8,5.00,000.00,031.1,030.3,000.0,039.4,032.7,013.3,0000.0,0008.05,0002.39,0001.05
2024-06-05 12:08:00,SystemResetWarning,0827.7,5.00,000.00,031.1,030.3,000.0,039.4,032.8,013.8,0000.0,0008.19,0002.43,0001.06
2024-06-05 12:09:00,SystemResetWarning,0827.8,5.00,000.00,031.1,030.3,000.0,039.5,032.8,013.9,0000.0,0008.15,0002.44,0001.08
2024-06-05 12:10:00,SystemResetWarning,0827.8,5.00,000.00,031.1,030.3,000.0,039.5,032.8,013.3,0000.0,0008.46,0002.40,0001.09
2024-06-05 12:11:00,SystemResetWarning,0827.8,5.00,000.00,031.1,030.3,000.0,039.5,032.8,013.2,0000.0,0008.83,0002.34,0001.07
2024-06-05 12:12:00,SystemResetWarning,0827.8,5.00,000.00,031.1,030.3,000.0,039.5,032.8,013.1,0000.0,0008.89,0002.25,0001.05
2024-06-05 12:13:00,SystemResetWarning,0827.8,5.00,000.00,031.1,030.3,000.0,039.5,032.7,013.2,0000.0,0008.86,0002.20,0001.02
2024-06-05 12:14:00,SystemResetWarning,0827.8,5.00,000.00,031.1,030.3,000.0,039.5,032.7,013.6,0000.0,0008.92,0002.22,0001.01
2024-06-05 12:15:00,SystemResetWarning,0827.8,5.00,000.00,031.1,030.3,000.0,039.5,032.7,013.5,0000.0,0008.80,0002.22,0000.98
2024-06-05 12:16:00,SystemResetWarning,0827.8,5.00,000.00,031.1,030.3,000.0,039.5,032.7,013.5,0000.0,0008.55,0002.18,0000.96
2024-06-05 12:17:00,SystemResetWarning,0827.7,5.00,000.00,031.1,030.3,000.0,039.5,032.7,013.2,0000.0,0009.05,0002.20,0000.98
2024-06-05 12:18:00,SystemResetWarning,0827.7,5.00,000.00,031.1,030.3,000.0,039.5,032.7,013.4,0000.0,0008.73,0002.25,0000.99
2024-06-05 12:19:00,SystemResetWarning,0827.7,5.01,000.00,031.1,030.3,000.0,039.5,032.7,013.5,0000.0,0008.83,0002.27,0000.98
2024-06-05 12:20:00,SystemResetWarning,0827.8,4.99,000.00,031.1,030.3,000.0,039.5,032.8,013.9,0000.0,0009.23,0002.30,0000.96
2024-06-05 12:21:00,SystemResetWarning,0827.7,5.00,000.00,031.1,030.3,000.0,039.5,032.8,013.7,0000.0,0008.77,0002.20,0000.93
2024-06-05 12:22:00,SystemResetWarning,0827.7,5.00,000.00,031.1,030.3,000.0,039.5,032.7,013.4,0000.0,0008.40,0002.12,0000.91
2024-06-05 12:23:00,SystemResetWarning,0827.7,4.99,000.00,031.1,030.3,000.0,039.5,032.8,013.3,0000.0,0008.18,0002.09,0000.91
2024-06-05 12:24:00,SystemResetWarning,0827.7,5.00,000.00,031.1,030.4,000.0,039.5,032.8,013.5,0000.0,0008.19,0002.05,0000.91
2024-06-05 12:25:00,SystemResetWarning,0827.7,5.01,000.00,031.1,030.4,000.0,039.5,032.8,013.5,0000.0,0008.13,0002.04,0000.91
2024-06-05 12:26:00,SystemResetWarning,0827.8,5.00,000.00,031.1,030.4,000.0,039.5,032.8,013.5,0000.0,0007.93,0001.94,0000.92
2024-06-05 12:27:00,SystemResetWarning,0827.7,4.99,000.00,031.1,030.4,000.0,039.5,032.8,013.7,0000.0,0007.95,0001.89,0000.91
2024-06-05 12:28:00,SystemResetWarning,0827.8,4.99,000.00,031.1,030.4,000.0,039.5,032.8,013.6,0000.0,0007.50,0001.88,0000.88
2024-06-05 12:29:00,SystemResetWarning,0827.7,5.00,000.00,031.2,030.4,000.0,039.5,032.8,013.5,0000.0,0007.73,0001.81,0000.86
2024-06-05 12:30:00,SystemResetWarning,0827.8,5.01,000.00,031.2,030.4,000.0,039.5,032.8,013.4,0000.0,0007.67,0001.76,0000.85
2024-06-05 12:31:00,SystemResetWarning,0827.7,5.00,000.00,031.2,030.4,000.0,039.5,032.8,013.9,0000.0,0006.57,0001.69,0000.84
2024-06-05 12:32:00,SystemResetWarning,0827.8,5.01,000.00,031.2,030.4,000.0,039.5,032.8,013.8,0000.0,0006.46,0001.65,0000.83
2024-06-05 12:33:00,SystemResetWarning,0827.7,4.99,000.00,031.2,030.4,000.0,039.5,032.8,013.5,0000.0,0006.33,0001.63,0000.81
2024-06-05 12:34:00,SystemResetWarning,0827.8,5.00,000.00,031.2,030.4,000.0,039.5,032.8,013.3,0000.0,0005.62,0001.64,0000.80
2024-06-05 12:35:00,SystemResetWarning,0827.8,4.99,000.00,031.2,030.4,000.0,039.5,032.8,013.4,0000.0,0005.77,0001.63,0000.79
2024-06-05 12:36:00,SystemResetWarning,0827.7,4.99,000.00,031.2,030.4,000.0,039.5,032.8,013.5,0000.0,0005.76,0001.64,0000.78
2024-06-05 12:37:00,SystemResetWarning,0827.8,5.00,000.00,031.2,030.4,000.0,039.5,032.8,013.2,0000.0,0006.43,0001.62,0000.76
2024-06-05 12:38:00,SystemResetWarning,0827.7,5.01,000.00,031.2,030.4,000.0,039.5,032.8,013.2,0000.0,0006.55,0001.64,0000.75
2024-06-05 12:39:00,SystemResetWarning,0828.0,5.01,000.00,031.2,030.4,000.0,039.5,032.8,013.1,0000.0,0006.43,0001.60,0000.74
2024-06-05 12:40:00,SystemResetWarning,0827.8,4.99,000.00,031.2,030.4,000.0,039.5,032.8,013.3,0000.0,0006.60,0001.60,0000.74
2024-06-05 12:41:00,SystemResetWarning,0827.8,4.99,000.00,031.2,030.4,000.0,039.5,032.8,013.5,0000.0,0006.76,0001.57,0000.73
2024-06-05 12:42:00,SystemResetWarning,0827.8,4.99,000.00,031.2,030.4,000.0,039.5,032.8,013.8,0000.0,0006.75,0001.56,0000.74
2024-06-05 12:43:00,SystemResetWarning,0827.7,5.00,000.00,031.2,030.4,000.0,039.5,032.8,013.2,0000.0,0006.85,0001.54,0000.74
2024-06-05 12:44:00,SystemResetWarning,0827.7,5.01,000.00,031.2,030.4,000.0,039.5,032.8,013.3,0000.0,0006.83,0001.54,0000.73
2024-06-05 12:45:00,SystemResetWarning,0827.7,5.00,000.00,031.2,030.4,000.0,039.5,032.8,013.6,0000.0,0006.39,0001.53,0000.73
2024-06-05 12:46:00,SystemResetWarning,0827.7,5.01,000.00,031.2,030.4,000.0,039.6,032.8,013.8,0000.0,0006.81,0001.55,0000.73
2024-06-05 12:47:00,SystemResetWarning,0827.7,5.00,000.00,031.2,030.4,000.0,039.6,032.8,013.7,0000.0,0007.48,0001.57,0000.73
2024-06-05 12:48:00,SystemResetWarning,0827.7,5.00,000.00,031.2,030.4,000.0,039.5,032.8,013.7,0000.0,0006.91,0001.55,0000.72
2024-06-05 12:49:00,SystemResetWarning,0827.7,5.00,000.00,031.2,030.5,000.0,039.5,032.8,013.8,0000.0,0007.11,0001.50,0000.71
2024-06-05 12:50:00,SystemResetWarning,0827.6,5.00,000.00,031.2,030.4,000.0,039.6,032.8,013.6,0000.0,0006.82,0001.55,0000.70
2024-06-05 12:51:00,SystemResetWarning,0827.5,5.00,000.00,031.2,030.5,000.0,039.6,032.8,013.6,0000.0,0005.59,0001.52,0000.69
2024-06-05 12:52:00,SystemResetWarning,0827.5,5.00,000.00,031.2,030.5,000.0,039.6,032.8,013.8,0000.0,0005.26,0001.49,0000.68
2024-06-05 12:53:00,SystemResetWarning,0827.5,5.00,000.00,031.2,030.4,000.0,039.6,032.8,013.2,0000.0,0005.33,0001.50,0000.66
2024-06-05 12:54:00,SystemResetWarning,0827.5,5.00,000.00,031.2,030.4,000.0,039.6,032.9,013.2,0000.0,0005.49,0001.58,0000.65
2024-06-05 12:55:00,SystemResetWarning,0827.5,5.00,000.00,031.2,030.4,000.0,039.6,032.9,013.6,0000.0,0005.58,0001.58,0000.66
2024-06-05 12:56:00,SystemResetWarning,0827.5,5.00,000.00,031.2,030.4,000.0,039.5,032.9,013.7,0000.0,0005.46,0001.54,0000.64
2024-06-05 12:57:00,SystemResetWarning,0827.5,5.01,000.00,031.2,030.4,000.0,039.6,032.9,013.3,0000.0,0004.84,0001.54,0000.63
2024-06-05 12:58:00,SystemResetWarning,0827.5,5.00,000.00,031.2,030.4,000.0,039.6,032.9,013.6,0000.0,0003.70,0001.45,0000.63
2024-06-05 12:59:00,SystemResetWarning,0827.5,5.00,000.00,031.2,030.4,000.0,039.6,032.9,013.7,0000.0,0003.68,0001.45,0000.62
